Regional Weather Roundup
Issued by NWS

Home | Current Version | Previous Version | Text Only | Print | Product List | Glossary On
Versions: 1 2 3 4 5 6 7 8 9 10 11 12 13 14 15 16 17 18 19 20 21 22 23 24 25 26 27 28 29 30 31 32 33 34 35 36 37 38 39 40 41 42 43 44 45 46 47 48 49 50
656
ASUS43 KDTX 231210
RWRMI
MICHIGAN HOURLY REGIONAL WEATHER ROUNDUP
NATIONAL WEATHER SERVICE DETROIT/PONTIAC MI
ISSUED BY NATIONAL WEATHER SERVICE GRAND RAPIDS MI
800 AM EDT FRI JUN 23 2017

NOTE: "FAIR" INDICATES FEW OR NO CLOUDS BELOW 12,000 FEET WITH NO
SIGNIFICANT WEATHER AND/OR OBSTRUCTION TO VISIBILITY.

MIZ047>049-052>055-059>063-066>070-074>076-081>083-231300-
SOUTHEAST LOWER MICHIGAN

CITY           SKY/WX    TMP DP  RH WIND       PRES   REMARKS
ADRIAN         CLOUDY    71  70  96 SW9       29.66R FOG
6HR MIN TEMP:  69; 6HR MAX TEMP:  75; 6HR PCP:  0.20;

ALMA           LGT RAIN  65  65  99 SE5       29.62R
ANN ARBOR      LGT RAIN  70  70 100 S6        29.63F
BAD AXE        LGT RAIN  66  66  99 S5        29.62F
6HR MIN TEMP:  64; 6HR MAX TEMP:  67;

DETROIT CITY   RAIN      72  69  90 SW14      29.63F FOG
6HR MIN TEMP:  72; 6HR MAX TEMP:  73;

DETROIT        LGT RAIN  71  70  96 S10       29.64F FOG
6HR MIN TEMP:  71; 6HR MAX TEMP:  73; 6HR PCP:  0.02;

FLINT          CLOUDY    66  64  93 E12       29.63S FOG
6HR MIN TEMP:  66; 6HR MAX TEMP:  73;

GROSSE ILE     LGT RAIN  71  70  96 S6        29.63F
6HR MIN TEMP:  70; 6HR MAX TEMP:  74; 6HR PCP:  0.28;

HILLSDALE      CLOUDY    70  68  94 SW8       29.66R FOG
HOWELL         CLOUDY    70  67  90 SW6       29.63S
6HR MIN TEMP:  70; 6HR MAX TEMP:  72; 6HR PCP:  0.10;


CITY           SKY/WX    TMP DP  RH WIND       PRES   REMARKS
JACKSON        CLOUDY    71  69  93 SW8       29.64S
6HR MIN TEMP:  71; 6HR MAX TEMP:  73; 6HR PCP:  0.02;

LANSING        HVY RAIN  70  64  81 N8G17     29.64R VSB 3/4
6HR MIN TEMP:  72; 6HR MAX TEMP:  74; 6HR PCP:  0.11;

MASON          CLOUDY    70  69  98 SW3       29.62S FOG
MONROE         LGT RAIN  71  70  97 SW6       29.63F
6HR MIN TEMP:  70; 6HR MAX TEMP:  74; 6HR PCP:  0.56;

MT. CLEMENS    RAIN      72  72 100 SW7       29.61F FOG
6HR MIN TEMP:  72; 6HR MAX TEMP:  74; 6HR PCP:  0.28;

PONTIAC        CLOUDY    70  70 100 S6        29.61F
6HR MIN TEMP:  70; 6HR MAX TEMP:  72; 6HR PCP:  0.04;

PORT HOPE        N/A     65  64  97 S7        29.58F
6HR MIN TEMP:  65; 6HR MAX TEMP:  71; 6HR PCP:  0.68;

PORT HURON     HVY RAIN  66  64  94 E6        29.64F
TRI CITIES     RAIN      66  66 100 SE6       29.61F FOG
6HR MIN TEMP:  66; 6HR MAX TEMP:  68; 6HR PCP:  1.77;

YPSILANTI      LGT RAIN  72  71  97 S9        29.63F FOG
6HR MIN TEMP:  72; 6HR MAX TEMP:  75; 6HR PCP: TRACE;

$$
MIZ043>046-050>051-056>058-064>065-071>073-077>080-231300-
SOUTHWEST LOWER MICHIGAN

CITY           SKY/WX    TMP DP  RH WIND       PRES   REMARKS
BATTLE CREEK   CLOUDY    72  71  97 SW12G20   29.63S
6HR MIN TEMP:  71; 6HR MAX TEMP:  75; 6HR PCP:  0.05;

BENTON HARBOR  LGT RAIN  67  63  87 CALM      29.65S
6HR MIN TEMP:  67; 6HR MAX TEMP:  75; 6HR PCP:  0.06;

BIG RAPIDS     LGT RAIN  64  63  94 W5        29.62F
6HR MIN TEMP:  64; 6HR MAX TEMP:  65; 6HR PCP:  0.86;

COLDWATER      CLOUDY    71  71 100 SW6       29.64S FOG
6HR MIN TEMP:  70; 6HR MAX TEMP:  73;

HOLLAND        LGT RAIN  68  66  93 NW5       29.65R
6HR MIN TEMP:  68; 6HR MAX TEMP:  76; 6HR PCP:  0.09;

GRAND RAPIDS   CLOUDY    68  68 100 N6        29.63R
6HR MIN TEMP:  68; 6HR MAX TEMP:  74; 6HR PCP:  0.84;

KALAMAZOO      PTSUNNY   73  68  84 W15       29.63R
6HR MIN TEMP:  71; 6HR MAX TEMP:  75; 6HR PCP:  0.11;

MARSHALL       LGT RAIN  71  71  98 SW7       29.62S
6HR MIN TEMP:  71; 6HR MAX TEMP:  73; 6HR PCP:  0.03;

MOUNT PLEASANT CLOUDY    65  65  97 CALM      29.61S
6HR MIN TEMP:  65; 6HR MAX TEMP:  66; 6HR PCP:  2.70;

MUSKEGON       LGT RAIN  67  65  93 N7        29.63F
6HR MIN TEMP:  67; 6HR MAX TEMP:  71; 6HR PCP:  0.43;

STURGIS        CLOUDY    71  71  99 SW8       29.63S FOG
6HR MIN TEMP:  70; 6HR MAX TEMP:  72; 6HR PCP:  0.13;

$$
MIZ016>042-231300-
NORTHERN LOWER MICHIGAN

CITY           SKY/WX    TMP DP  RH WIND       PRES   REMARKS
ALPENA         CLOUDY    66  66 100 W5        29.60F
6HR MIN TEMP:  65; 6HR MAX TEMP:  67; 6HR PCP:  0.19;

BEAVER ISLAND  FOG       62  62 100 CALM      29.61S VSB<1/4
6HR MIN TEMP:  60; 6HR MAX TEMP:  63;

BELLAIRE       CLOUDY    64  62  94 CALM      29.61F
6HR MIN TEMP:  64; 6HR MAX TEMP:  66;

CADILLAC       RAIN      64  63  97 CALM      29.64F
CHARLEVOIX     FOG       61  61 100 W3        29.64F VSB<1/4
GAYLORD        LGT RAIN  64  61  90 NW6       29.61F FOG
6HR MIN TEMP:  64; 6HR MAX TEMP:  65; 6HR PCP:  0.13;

HOUGHTON LAKE  LGT RAIN  65  63  93 W5        29.62F
6HR MIN TEMP:  64; 6HR MAX TEMP:  66; 6HR PCP:  0.10;

MANISTEE       CLOUDY    64  63  94 N5        29.62F
OSCODA         CLOUDY    66  65  97 SW5       29.59F
6HR MIN TEMP:  66; 6HR MAX TEMP:  70; 6HR PCP:  0.60;

PELLSTON       CLOUDY    64  61  90 W7        29.61S
6HR MIN TEMP:  63; 6HR MAX TEMP:  64;

TRAVERSE CITY  CLOUDY    66  63  90 W5        29.61S
6HR MIN TEMP:  66; 6HR MAX TEMP:  67; 6HR PCP:  0.21;

LUDINGTON      RAIN      64  64 100 CALM      29.62F
6HR MIN TEMP:  64; 6HR MAX TEMP:  65; 6HR PCP:  0.29;

$$
MIZ007>008-015-231300-
EASTERN UPPER MICHIGAN

CITY           SKY/WX    TMP DP  RH WIND       PRES   REMARKS
KINROSS        CLOUDY    61  61 100 W3        29.60S FOG
6HR MIN TEMP:  60; 6HR MAX TEMP:  61;

MACKINAC ISLAN FOG       60  60 100 CALM      29.60S VSB<1/4
6HR MIN TEMP:  60; 6HR MAX TEMP:  62;

NEWBERRY       PTSUNNY   60  60  97 CALM      29.59F FOG
6HR MIN TEMP:  58; 6HR MAX TEMP:  61;

S. S. MARIE    FOG       60  59  96 CALM      29.58F VSB<1/4
6HR MIN TEMP:  60; 6HR MAX TEMP:  63;

$$
MIZ004>006-011>014-085-231300-
CENTRAL UPPER MICHIGAN

CITY           SKY/WX    TMP DP  RH WIND       PRES   REMARKS
MANISTIQUE     MOSUNNY   62  59  89 CALM      29.60S
6HR MIN TEMP:  56; 6HR MAX TEMP:  62;

ESCANABA       CLOUDY    61  59  93 W5        29.63S
6HR MIN TEMP:  56; 6HR MAX TEMP:  64; 6HR PCP: TRACE;

MENOMINEE      CLOUDY    63  60  90 W3        29.65S
6HR MIN TEMP:  61; 6HR MAX TEMP:  65; 6HR PCP:  0.01;

SAWYER-GWINN   SUNNY     57  54  88 W6        29.63R
$$
MIZ001>003-009>011-084-231300-
WESTERN UPPER MICHIGAN

CITY           SKY/WX    TMP DP  RH WIND       PRES   REMARKS
IRON MOUNTAIN  SUNNY     60  55  83 CALM      29.64S
6HR MIN TEMP:  52; 6HR MAX TEMP:  60;

HOUGHTON       MOSUNNY   63  51  65 W13       29.58S
6HR MIN TEMP:  51; 6HR MAX TEMP:  63; 6HR PCP: TRACE;

COPPER HARBOR    N/A     65  50  58 VRB7G17   29.55F
6HR MIN TEMP:  53; 6HR MAX TEMP:  67;

IRONWOOD       SUNNY     59  50  72 W9        29.65S
6HR MIN TEMP:  52; 6HR MAX TEMP:  59;

$$

ABBREVIATIONS USED IN REMARKS
   TC - TEMPERATURE IN CELSIUS
  WCI - WIND CHILL INDEX
   HX - HEAT INDEX
  VSB - VISIBILITY





USA.gov is the U.S. government's official web portal to all federal, state and local government web resources and services.